Location: Brooks Farm Pond
(32.9618°N, 86.0700°W)
Time: 22:57:51
(UTC+00:00)

Cosmos 1825 - Pass Details

Date: 29 October 2020
Orbit: 502 x 508 km, 82.5° (Epoch: 28 November)

Event Time Altitude Azimuth Distance (km) Brightness Sun altitude
Rises 23:33:20 0° 19° (NNE) 2,612 5.5 -8.6°
Reaches altitude 10° 23:36:48 10° 54° (NE) 1,719 4.3 -9.3°
Enters shadow 23:36:49 10° 54° (NE) 1,719 4.3 -9.3°
